Regional Weather Roundup
Issued by NWS

Home | Current Version | Previous Version | Text Only | Print | Product List | Glossary On
Versions: 1 2 3 4 5 6 7 8 9 10 11 12 13 14 15 16 17 18 19 20 21 22 23 24 25 26 27 28 29 30 31 32 33 34 35 36 37 38 39 40 41 42 43 44 45 46 47 48 49 50
000
ASUS43 KMKX 211100
RWRWI

WISCONSIN REGIONAL WEATHER ROUNDUP
NATIONAL WEATHER SERVICE MILWAUKEE/SULLIVAN WI
500 AM CST TUE NOV 21 2017

NOTE: "FAIR" INDICATES FEW OR NO CLOUDS BELOW 12,000 FEET WITH NO
SIGNIFICANT WEATHER AND/OR OBSTRUCTIONS TO VISIBILITY.

WIZ001-002-006>008-014>016-023>028-211200-
NORTHWEST WISCONSIN

CITY           SKY/WX    TMP DP  RH WIND       PRES   REMARKS
SUPERIOR ARPT  CLOUDY    27  13  56 W15G30    29.61R WCI  15
ASHLAND        FLURRIES  29  16  58 W21G29    29.55R WCI  16
HAYWARD        CLOUDY    29  16  58 NW15G25   29.56R WCI  18
SIREN          CLOUDY    28  15  59 W21G29    29.63R WCI  14
CUMBERLAND     CLOUDY    28  18  64 W22G39    29.59R WCI  15
RICE LAKE      CLOUDY    31  18  58 W23G31    29.60R WCI  18
CHETEK         CLEAR     30  18  61 W14G29    29.58R WCI  20
LADYSMITH      MOCLDY    33  22  62 W20G26    29.55R WCI  22
EAU CLAIRE     NOT AVBL
MENOMONIE      CLOUDY    32  19  58 W25G32    29.64R WCI  18
NEW RICHMOND   MOCLDY    27  13  57 NW25G36   29.67R WCI  11
OSCEOLA        PTCLDY    26  14  59 W20G26    29.73R WCI  12
$$

WIZ003>005-009-010-017-018-211200-
NORTH CENTRAL WISCONSIN

CITY           SKY/WX    TMP DP  RH WIND       PRES   REMARKS
MANITOWISH WTR MOCLDY    29  19  67 NW16G29   29.43R WCI  17
ARBOR VITAE    CLEAR     33  21  61 W15G26    29.42R WCI  23
WOODRUFF       CLEAR     33  21  61 W15G26    29.42R WCI  23
RHINELANDER    CLEAR     33  21  61 W21G32    29.44R WCI  21
EAGLE RIVER    PTCLDY    32  19  57 W14G28    29.41R WCI  22
LAND O LAKES   MOCLDY    33  20  59 W14G24    29.40R WCI  23
PHILLIPS       CLOUDY    29  19  64 W12G26    29.49R WCI  20
TOMAHAWK       PTCLDY    32  20  62 W20G26    29.46R WCI  20
MEDFORD        CLEAR     32  23  69 W15G29    29.49R WCI  22
MERRILL        CLEAR     34  20  56 W9G25     29.49R WCI  27
$$

WIZ029-030-035-036-043>047-211200-
CENTRAL WISCONSIN

CITY           SKY/WX    TMP DP  RH WIND       PRES   REMARKS
WAUSAU         CLEAR     35  21  56 NW24G38   29.48R WCI  23
MOSINEE        CLEAR     34  27  75 W17G24    29.50R WCI  23
MARSHFIELD     CLEAR     35  22  58 W15G28    29.51R WCI  25
STEVENS POINT  CLEAR     37  23  58 W13G21    29.50R WCI  28
WAUPACA        CLEAR     43  26  51 W15G21    29.50R
WAUTOMA        PTCLDY    41  24  51 W14       29.53R
WISC RAPIDS    CLEAR     37  23  56 W7        29.54R WCI  32
CAMP DOUGLAS   MOCLDY   N/A N/A N/A W14G25    29.58R
$$

WIZ011>013-019>022-031-037>040-048>050-211200-
NORTHEAST WISCONSIN

CITY           SKY/WX    TMP DP  RH WIND       PRES   REMARKS
ANTIGO         CLEAR     34  24  67 W16G23    29.44R WCI  23
SHAWANO        CLEAR     42  26  52 W12G20    29.46R
OCONTO         CLEAR     41  28  58 W12G20    29.43R
STURGEON BAY   CLEAR     43  29  57 SW16G23   29.44R
GREEN BAY      CLEAR     42  29  59 W20G31    29.47R
MANITOWOC      CLOUDY    46  29  51 SW12      29.49R
APPLETON       CLEAR     41  27  56 W17       29.47R
CLINTONVILLE   CLEAR     41  25  52 W14G22    29.47R
OSHKOSH        CLEAR     44  28  53 W12       29.50R
$$

WIZ032>034-041-042-053>061-211200-
SOUTHWEST WISCONSIN

CITY           SKY/WX    TMP DP  RH WIND       PRES   REMARKS
LA CROSSE      CLOUDY    39  15  37 NW20G26   29.64R WCI  29
SPARTA         CLOUDY    39  20  47 W15       29.60R WCI  30
VIROQUA        CLOUDY    38  21  50 W12G17    29.61R WCI  30
BOSCOBEL       MOCLDY    43  24  47 W9        29.64R
PRAIRIE DU CHI CLOUDY    41  24  51 W10       29.66R
PLATTEVILLE    CLOUDY    40  32  72 W7        29.63F
$$

WIZ056-057-062-063-064-067-068-211200-
SOUTH CENTRAL WISCONSIN

CITY           SKY/WX    TMP DP  RH WIND       PRES   REMARKS
REEDSBURG      CLOUDY    42  26  53 W10G16    29.56S
BARABOO/DELLS  CLOUDY    42  25  50 W13G18    29.55S
LONE ROCK      NOT AVBL
MINERAL POINT  CLOUDY    41  32  70 SW9       29.61S
MADISON        MOCLDY    43  31  62 W6        29.58R
MIDDLETON      MOCLDY    43  30  60 W10       29.58S
WATERTOWN      PTCLDY    41  32  70 SW8       29.57R
MONROE         CLEAR     41  32  70 SW16      29.61R
JANESVILLE     PTCLDY    41  32  70 SW8       29.61R
$$

WIZ051-052-058>065-066-070>072-211200-
SOUTHEAST WISCONSIN

CITY           SKY/WX    TMP DP  RH WIND       PRES   REMARKS
MILWAUKEE      PTCLDY    42  32  67 SW14      29.58S
WAUKESHA       CLEAR     41  30  65 SW12      29.58S
MILWAUKEE/TIMM CLEAR     43  30  61 SW10      29.57S
RACINE         CLEAR     43  32  65 SW15G24   29.61F
BURLINGTON     CLEAR     40  36  83 SW8       29.60S WCI  35
KENOSHA        CLEAR     43  31  62 SW15G26   29.61S
FOND DU LAC    CLEAR     41  29  62 SW10      29.51R
SHEBOYGAN      PTCLDY    43  32  65 SW10      29.50S
WEST BEND      MOCLDY    43  30  61 SW9       29.53S
JUNEAU         PTCLDY    41  31  68 SW13      29.55S
$$

LSZ147-162-211200-
LAKE SUPERIOR

STATION/POSITION TIME  TEMP    WIND        PRES    WAVE
                       AIR SEA DIR/SP/G            HT/PER
                 (UTC) (F)     (DEG/KT/KT) (MB)    (FT/S)
DEVILS ISLAND    1000   31     290/ 34/ 40  998.1R
SAXON HARBOR     1030   33     290/ 15/ 27  999.0R
$$

LMZ867-665-643>646-211200-
LAKE MICHIGAN

STATION/POSITION TIME  TEMP    WIND        PRES    WAVE
                       AIR SEA DIR/SP/G            HT/PER
                 (UTC) (F)     (DEG/KT/KT) (MB)    (FT/S)
N MID LAKE BUOY  0950   48 48  230/ 23/ 29  994.4F  10/ 8
NORTHPORT PIER   1040   45     240/  6/ 17  995.3R
KEWAUNEE LAKESHO 1030   45     230/ 11/ 17  996.6R
SHEBOYGAN LAKESH 1000   46     230/ 13/ 15  999.2R
PORT WASHINGTON  1040   46     240/ 10/ 15 1001.4S
MILWAUKEE LAKESH 1030   44     230/ 13/ 15   N/A
S MID LAKE BUOY  0950   47 48  250/ 25/ 33 1002.4F   8/ 7
KENOSHA   LAKESH 1000   46     230/ 18/ 25 1003.4
$$

TC  - TEMPERATURE IN CELSIUS
VSB - VISIBILITY IN STATUTE MILES
WCI - WIND CHILL INDEX
HX  - HEAT INDEX




USA.gov is the U.S. government's official web portal to all federal, state and local government web resources and services.